FW2611 Weather Reports


Display with metric or nautical units.
time (UTC)temp
F
wind
direction
speed
MPH
gust
MPH
rain 1hr
in
rain 24hr
in
rain mn
in
humidity
%
barometer
mb
20260906164508 72 65 6.0 19.0 0.12 0.12 0.12 79 1015.6
20260906163010 77 75 11.0 16.0 0.00 0.00 0.00 68 1015.5
20260906161510 78 67 10.0 14.0 0.00 0.00 0.00 64 1015.3
20260906160010 79 98 9.0 15.0 0.00 0.00 0.00 63 1015.4
20260906154512 79 76 5.0 15.0 0.00 0.00 0.00 60 1015.3
20260906153029 77 51 6.0 15.0 0.00 0.00 0.00 61 1015.3
20260906151513 77 35 7.0 18.0 0.00 0.00 0.00 63 1015.4
20260906150020 76 34 9.0 17.0 0.00 0.00 0.00 65 1015.4
20260906144512 75 344 8.0 15.0 0.00 0.00 0.00 65 1015.3
20260906143018 75 9 8.0 17.0 0.00 0.00 0.00 71 1015.1
20260906141512 74 9 9.0 17.0 0.00 0.00 0.00 70 1015.0
20260906140021 74 24 8.0 15.0 0.00 0.00 0.00 71 1014.8
20260906134511 73 40 10.0 15.0 0.00 0.00 0.00 71 1014.9
20260906133024 73 47 10.0 15.0 0.00 0.00 0.00 74 1014.6
20260906131518 72 352 8.0 15.0 0.00 0.00 0.00 77 1014.6
20260906130016 72 36 8.0 16.0 0.00 0.00 0.00 78 1014.6
20260906124512 71 68 6.0 16.0 0.00 0.00 0.00 80 1014.5
20260906123029 70 19 8.0 15.0 0.00 0.00 0.00 81 1014.5
20260906121503 69 30 5.0 13.0 0.00 0.00 0.00 83 1014.4
20260906120004 68 360 7.0 13.0 0.00 0.00 0.00 84 1014.2
20260906114507 67 15 8.0 15.0 0.00 0.00 0.00 84 1014.2
20260906113011 67 348 7.0 16.0 0.00 0.00 0.00 84 1014.0
20260906111523 66 343 7.0 14.0 0.00 0.00 0.00 83 1013.9
20260906110021 66 5 9.0 14.0 0.00 0.00 0.00 84 1013.7
20260906104507 66 350 8.0 12.0 0.00 0.00 0.00 84 1013.4
20260906103010 66 9 8.0 12.0 0.00 0.00 0.00 84 1013.2
20260906101526 66 332 6.0 10.0 0.00 0.00 0.00 84 1013.0
20260906100029 66 352 5.0 12.0 0.00 0.00 0.00 83 1012.9
20260906094528 66 11 6.0 13.0 0.00 0.00 0.00 83 1012.5
20260906093008 66 345 6.0 12.0 0.00 0.00 0.00 82 1012.5
20260906091512 67 333 4.0 10.0 0.00 0.00 0.00 82 1012.3
20260906090036 67 327 4.0 10.0 0.00 0.00 0.00 82 1012.2
20260906084526 68 336 2.0 9.0 0.00 0.00 0.00 80 1012.1
20260906083034 67 5 4.0 10.0 0.00 0.00 0.00 80 1012.2
20260906081512 68 9 5.0 10.0 0.00 0.00 0.00 80 1012.1
20260906080015 68 360 5.0 10.0 0.00 0.00 0.00 80 1012.2
20260906074519 69 360 4.0 11.0 0.00 0.00 0.00 80 1011.9
20260906073027 69 352 5.0 9.0 0.00 0.00 0.00 79 1011.9
20260906071528 69 338 4.0 8.0 0.00 0.00 0.00 79 1011.9
20260906070012 70 345 3.0 8.0 0.00 0.00 0.00 81 1012.0
20260906064518 70 331 3.0 6.0 0.00 0.00 0.00 82 1011.9
20260906063040 71 318 2.0 5.0 0.00 0.01 0.00 81 1011.9
20260906061505 71 329 2.0 6.0 0.00 0.06 0.00 81 1012.0
20260906060009 72 313 3.0 5.0 0.00 0.06 0.00 80 1012.2
20260906055038 72 287 1.0 4.0 0.00 0.06 0.00 81 1012.3
20260906055026 73 304 1.0 4.0 0.00 0.06 0.00 80 1012.4
20260906051545 73 305 1.0 5.0 0.00 0.06 0.00 81 1012.5
20260906050006 74 276 1.0 4.0 0.00 0.06 0.00 76 1012.7
20260906044512 75 263 1.0 4.0 0.00 0.06 0.00 75 1012.8
20260906043017 75 206 0.0 2.0 0.00 0.06 0.00 73 1012.8
20260906041523 75 194 0.0 3.0 0.00 0.06 0.00 72 1012.8
20260906040035 76 190 0.0 2.0 0.00 0.06 0.00 70 1012.9
20260906034508 76 190 0.0 3.0 0.00 0.06 0.06 69 1012.9
20260906033014 76 190 0.0 3.0 0.00 0.06 0.06 68 1012.8
20260906031520 77 185 1.0 4.0 0.00 0.06 0.06 68 1012.7
20260906030025 77 169 0.0 4.0 0.00 0.06 0.06 67 1012.7
20260906024531 78 174 0.0 3.0 0.00 0.06 0.06 66 1012.7
20260906023011 77 169 0.0 6.0 0.00 0.06 0.06 66 1012.8
20260906021518 77 178 0.0 2.0 0.00 0.06 0.06 66 1012.5
20260906020023 77 180 0.0 4.0 0.00 0.06 0.06 66 1012.4
20260906014529 77 165 1.0 4.0 0.00 0.06 0.06 66 1012.3
20260906013052 77 149 1.0 3.0 0.00 0.06 0.06 66 1012.3
20260906011539 77 149 0.0 5.0 0.00 0.06 0.06 67 1012.3
20260906010018 76 133 2.0 5.0 0.00 0.06 0.06 68 1012.2
20260906004527 76 117 3.0 7.0 0.00 0.06 0.06 68 1012.2
20260906003027 77 127 2.0 8.0 0.00 0.06 0.06 67 1011.9
20260906001532 77 123 3.0 8.0 0.00 0.06 0.06 67 1011.7
20260906000031 77 138 4.0 9.0 0.00 0.06 0.06 67 1011.5
20260905234523 77 105 3.0 9.0 0.00 0.06 0.06 67 1011.3
20260905233035 77 136 2.0 10.0 0.00 0.06 0.06 67 1011.3
20260905231531 78 111 6.0 10.0 0.00 0.06 0.06 65 1011.1
20260905230037 80 105 4.0 10.0 0.00 0.06 0.06 63 1011.2
20260905224534 81 85 9.0 15.0 0.00 0.06 0.06 61 1011.2
20260905223023 82 76 9.0 13.0 0.00 0.06 0.06 59 1010.9
20260905221506 83 98 7.0 13.0 0.00 0.06 0.06 56 1010.8
20260905220011 83 346 10.0 17.0 0.00 0.06 0.06 44 1010.3
20260905214515 83 47 6.0 15.0 0.00 0.06 0.06 44 1010.4
20260905213022 84 340 8.0 12.0 0.00 0.06 0.06 45 1010.3
20260905211523 84 9 8.0 15.0 0.00 0.06 0.06 43 1010.3
20260905210004 84 339 7.0 15.0 0.00 0.06 0.06 43 1010.2
20260905204512 84 5 9.0 14.0 0.00 0.06 0.06 43 1010.3
20260905203020 84 360 11.0 16.0 0.00 0.06 0.06 43 1010.2
20260905201521 83 352 8.0 16.0 0.00 0.06 0.06 46 1010.2
20260905200030 83 306 8.0 12.0 0.00 0.06 0.06 46 1010.3
20260905194508 82 296 4.0 12.0 0.00 0.06 0.06 50 1010.6
20260905193010 82 309 4.0 15.0 0.00 0.06 0.06 49 1010.7
20260905191521 82 301 4.0 13.0 0.00 0.06 0.06 50 1010.7
20260905190024 83 338 6.0 11.0 0.00 0.06 0.06 48 1010.8
20260905184527 83 335 5.0 11.0 0.00 0.06 0.06 48 1011.0
20260905183009 84 17 7.0 13.0 0.00 0.06 0.06 47 1011.0
20260905181519 83 292 5.0 10.0 0.00 0.06 0.06 50 1011.1
20260905180022 82 306 5.0 13.0 0.00 0.06 0.06 52 1011.4
20260905174534 82 23 7.0 14.0 0.00 0.06 0.06 48 1011.3
20260905173031 82 278 5.0 11.0 0.00 0.06 0.06 52 1011.4
20260905171524 82 21 6.0 12.0 0.00 0.06 0.06 54 1011.4
20260905170022 81 311 6.0 11.0 0.00 0.06 0.06 55 1011.5